Погода в Чыраа-Бажы

Россия / Республика Тыва     51°10′14″N   91°03′13″E
темп.,
°C
ветер,
м/с
пор.,
м/с
влажн.,
%
обл.,
%
осадки,
мм/ч
давл.,
гПа
погр.,
м
22 апреля, чт
чт2201:00−2ссв114376 0.0 102020
04:00−2ссз2252100 0.0 102271
07:00−2с1249100 0.0 1024331
10:000св1141100 0.0 10251337
13:00+3всв3332100 0.0 10242087
16:00+5св4431100 0.0 10252154
19:00+3ссв564247 0.1 10271344
22:000с334860 0.0 1031100
23 апреля, пт
пт2301:00−1с1249100 0.0 1032351
04:00−1с1148100 0.0 1033299
07:00−1ююв1149100 0.0 10341134
10:000ссз114799 0.0 10341249
13:00+3св0139100 0.0 10321626
16:00+5св33346 0.0 10291613
19:00+5св343684 0.0 10291484
22:00+1с357020 0.1 1031284
24 апреля, сб
сб2401:00+1с2257100 0.1 1031265
04:00−1ссв116091 0.0 103014
07:00−1сз0157100 0.1 1029616
10:00−1з2277100 0.4 1029582
13:00+1с2264100 0.9 1027866
16:00+4з124492 0.0 10241495
19:00+4зсз454199 0.3 10241128
22:00+1зсз345598 0.0 102788
25 апреля, вс
вс2501:000з2258100 0.0 102750
04:00−1з2360100 0.0 102888
07:00−1зюз355497 0.0 1029268
10:00+3зсз453111 0.0 10281824
13:00+6зсз3423100 0.0 10252672
16:00+7ссз6522100 0.0 10242679
19:00+5ссз563098 0.0 10261555
22:00+2ссз2245100 0.0 102938
26 апреля, пн
пн2601:00+1сз115387 0.0 102913
04:00−1зюз11595 0.0 103010
07:00−1ююз11514 0.0 1031102
10:00+3з11400 0.0 1029911
13:00+6с11280 0.0 10271554
16:00+8с12221 0.0 10251806
19:00+8с01215 0.0 10241421
22:00+5в223210 0.0 102614